Torna al catalogo

COSMOS 1275 DEB

AttivoPO
NORAD 12768·DEBRIS·🇷🇺 Russia

Lanciato Jun 4, 1981 da Plesetsk Cosmodrome

Loading…

Prossimi Passaggi (prossime 24 ore)

TLE

AggiornatoSource: Space-Track

Epoca: Sep 14, 2026, 19:48 UTC

1 12768U 81053DM  26257.82553839  .00000452  00000-0  36560-3 0  9990
2 12768  82.9315  32.5232 0049014 213.6726 309.3998 13.87629555272021

Traccia COSMOS 1275 DEB in tempo reale con AllMySat

Download on the App Store